Location: Byhalia Creek
(34.8270°N, 89.8040°W)
Time: 08:22:27
(UTC+00:00)

EXPRESS MD2 - Pass Details

Date: 22 April 2026
Orbit: 258 x 2746 km, 49.8° (Epoch: 15 May)

Event Time Altitude Azimuth Distance (km) Brightness Sun altitude
Exits shadow 10:09:17 23° 187° (S) 705 3.6 -14.1°
Maximum altitude 10:10:24 38° 133° (SE) 522 3.4 -13.9°
Drops below altitude 10° 10:13:23 10° 62° (ENE) 1,521 7.1 -13.4°
Sets 10:16:07 0° 55° (NE) 2,721 8.7 -12.9°
